Dewpoint
73 74 74 74 74 74 73 74 73 74 74 74 74 74 74 74 73 72 73 73 73 74 75 75 74 74 73 74 72 73 74 74 74 75 76 75 75 75 74 75 75 74 75 75 73 74 76 76 76 76 75 75 74 72 72 72 74 74 74 73 73 74 73 73 71 70 71 71 69 68 69 70 67 70 70 70 72 72 71 73 73 71 70 70 70
73 74 74 73 74 74 74 74 74 74 74 74 74 73 73 74 74 74 72 74 73 73 75 74 74 74 73 74 75 74 75 76 73 74 75 75 75 74 74 75 75 74 75 76 76 74 75 76 76 75 76 76 74 72 72 71 71 71 73 73 72 72 74 73 72 71 70 71 71 72 71 72 71 73 72 71 71 72 71 71 72 73 72 72 71
72 74 74 75 75 75 74 74 74 75 73 73 72 72 73 74 74 73 72 72 74 74 73 73 75 75 75 74 76 75 76 76 75 74 74 75 75 73 73 74 75 74 74 75 75 76 75 76 75 75 74 75 76 74 72 72 71 71 71 72 73 73 73 75 73 72 72 71 72 71 71 71 72 72 73 72 74 74 74 73 71 71 72 72 72
71 73 74 74 74 75 75 75 74 73 72 72 72 71 71 73 73 73 72 71 72 74 73 73 74 76 75 75 76 76 76 75 75 75 75 75 75 76 75 74 74 75 74 74 74 75 74 75 74 72 73 75 76 75 74 74 73 74 74 74 74 73 74 75 74 72 71 71 73 73 73 73 73 73 73 74 73 73 73 73 73 72 71 71 71
71 72 73 72 73 74 74 73 73 73 72 71 71 71 70 71 73 73 72 71 71 73 74 74 75 75 75 75 76 76 76 76 76 74 74 75 75 74 75 75 75 75 75 75 75 75 75 75 74 74 74 75 75 75 74 75 75 74 74 75 75 75 74 73 73 72 72 71 71 73 74 74 74 75 75 74 74 74 75 74 74 74 74 72 71
70 72 72 72 73 73 74 73 72 73 72 71 71 70 70 71 72 72 72 71 71 71 73 73 73 75 76 75 76 76 76 76 76 75 72 73 75 74 74 75 75 75 75 74 75 75 75 75 74 74 74 74 74 74 75 75 76 75 75 75 75 75 74 74 74 73 72 71 72 71 74 72 73 73 74 74 73 73 74 75 75 75 75 73 72
71 72 72 71 73 73 73 73 73 72 73 72 71 71 70 70 70 71 72 71 70 70 71 73 73 74 76 75 75 76 76 76 76 76 75 74 74 75 73 73 74 75 75 74 73 73 74 74 75 75 75 75 74 73 74 76 75 75 75 75 75 75 73 73 73 73 72 71 72 72 72 72 72 71 73 73 73 73 73 73 73 73 75 74 74
72 73 72 72 73 72 73 73 73 73 73 74 73 71 71 70 71 72 73 72 70 70 70 71 73 73 75 75 75 76 76 76 77 77 76 75 73 74 75 74 73 74 74 74 73 71 72 73 72 74 75 76 75 75 75 75 75 75 75 75 75 75 73 72 73 72 72 71 70 70 71 71 71 72 72 73 72 72 73 73 73 73 74 75 75
72 72 73 73 73 74 75 74 74 74 74 75 74 73 72 72 72 73 74 72 70 70 70 70 72 73 74 75 75 75 75 76 76 76 76 76 75 73 74 75 74 73 74 73 73 73 72 70 70 71 74 77 76 76 76 76 75 76 77 77 76 75 74 73 72 72 71 71 70 70 69 70 70 71 70 70 70 71 73 73 73 74 74 74 75
72 73 73 73 73 75 75 75 75 75 74 74 75 74 73 73 72 72 73 73 73 73 72 72 71 72 73 74 75 75 74 75 74 70 72 76 75 73 74 75 75 74 74 74 72 72 72 71 68 75 75 76 75 72 70 71 72 73 74 76 76 76 74 73 72 72 71 70 69 69 68 68 68 70 69 70 72 74 73 74 74 73 74 74 74
72 72 72 73 74 75 75 75 75 75 75 75 75 75 74 73 74 74 74 74 74 75 73 72 71 71 72 73 74 74 74 74 69 66 66 69 75 76 75 75 76 76 75 75 75 72 71 72 72 74 77 75 76 70 69 68 68 68 68 69 73 76 75 74 73 73 71 71 70 70 69 70 70 71 72 72 73 73 73 74 74 74 73 72 70
72 73 72 74 75 76 75 76 76 76 76 76 76 76 74 75 75 75 74 74 75 74 73 73 73 72 71 72 72 73 74 71 65 64 65 66 69 74 74 74 74 75 75 74 74 73 72 70 71 73 74 75 75 77 73 68 67 67 66 66 67 67 68 74 75 74 74 72 71 72 72 72 73 74 72 72 74 74 75 75 76 75 74 72 72
72 73 73 74 76 76 76 76 76 76 76 76 76 76 76 75 75 74 73 74 74 75 75 74 74 73 72 73 72 72 73 68 64 63 64 64 65 69 71 73 73 73 74 75 75 75 75 74 73 72 73 77 76 75 77 78 68 65 65 66 66 65 64 64 65 74 74 74 73 72 72 72 73 74 74 75 76 75 75 76 77 76 75 73 72
73 73 74 75 76 76 76 76 76 76 76 76 76 76 76 75 74 73 73 75 75 75 74 75 75 75 74 74 74 73 73 68 63 62 62 63 63 66 72 72 72 72 74 74 74 75 76 76 75 75 75 75 76 76 76 76 76 76 74 74 74 72 65 63 62 62 67 72 74 73 75 75 74 75 76 76 76 75 75 75 76 75 74 73 74
73 73 74 75 75 76 76 76 76 76 76 76 76 76 76 76 75 74 73 73 74 75 75 75 75 75 74 73 73 72 70 65 62 61 61 61 62 64 73 72 72 73 73 74 75 76 76 76 76 76 76 76 76 76 77 77 77 76 76 75 75 76 76 74 71 71 70 70 73 74 75 75 76 76 77 77 76 76 76 76 76 76 74 74 74
73 73 74 74 75 75 76 76 76 76 76 76 76 76 76 76 76 74 73 72 74 74 75 74 74 75 74 74 72 72 71 63 60 60 60 60 61 70 73 74 73 73 74 74 75 76 76 76 77 76 76 76 74 70 73 77 76 76 75 75 74 74 73 73 70 70 74 73 74 75 74 74 70 77 77 75 76 76 75 75 75 74 73 72 71
73 74 73 74 74 75 75 75 75 75 75 75 75 75 75 76 75 75 74 73 72 73 74 73 74 74 74 74 74 73 72 67 59 58 58 59 62 73 73 73 73 73 74 74 75 76 76 77 77 76 76 77 72 66 65 70 75 74 74 74 73 72 72 73 69 64 64 63 63 64 65 66 65 64 63 61 69 71 73 71 71 72 72 71 70
72 74 73 73 75 75 75 75 75 75 75 75 75 74 74 75 75 75 73 72 70 71 73 73 74 74 73 73 73 73 73 68 58 56 57 57 65 73 74 73 74 74 74 75 75 76 76 75 77 76 76 76 69 65 63 71 76 75 75 74 73 73 73 72 71 76 62 61 61 62 62 63 62 62 61 60 60 64 72 71 73 73 71 69 68
72 73 73 74 75 75 74 75 75 74 75 74 74 74 74 75 75 75 73 73 71 73 73 73 73 74 72 72 72 72 72 69 57 57 56 56 65 74 73 73 73 74 74 75 75 75 76 75 73 73 74 74 67 64 62 69 76 76 75 74 73 73 73 73 73 73 76 77 77 75 73 66 69 72 73 64 61 64 71 73 74 72 68 68 68
72 73 74 74 74 74 74 75 75 74 74 75 75 74 74 74 74 74 73 73 72 71 71 72 73 73 72 72 71 72 72 73 69 56 56 55 59 73 74 73 73 74 74 73 73 75 75 75 74 65 63 64 63 62 59 60 75 76 75 74 73 73 73 74 75 74 76 75 76 76 77 77 76 76 76 76 73 70 71 73 73 72 70 67 67
73 74 74 73 73 74 74 74 74 73 74 74 74 74 73 73 73 74 73 72 72 72 71 72 72 73 72 73 72 72 72 72 75 56 56 55 57 63 73 73 74 74 74 73 73 72 73 73 74 68 61 61 60 60 59 56 63 76 75 75 75 76 73 75 75 75 75 76 76 76 76 76 76 75 75 75 73 68 68 72 71 69 69 68 66
74 74 75 73 73 73 73 74 74 73 74 75 75 75 74 74 74 73 72 73 74 74 74 73 72 72 73 73 73 74 73 70 73 59 56 55 55 57 70 72 73 74 74 74 73 73 73 73 75 71 60 59 59 58 57 57 56 72 74 65 63 63 76 75 75 74 73 74 75 74 74 74 74 74 72 69 64 64 63 65 67 68 68 67 65
74 75 75 74 74 74 74 75 74 73 74 75 75 75 75 75 75 75 75 75 75 75 75 74 74 73 73 73 74 73 74 75 65 69 56 55 54 55 60 67 64 75 73 73 73 73 73 74 74 71 59 56 56 55 56 55 57 67 61 61 61 61 68 73 73 73 73 74 74 73 73 73 73 72 69 65 64 67 67 68 69 69 69 68 67
75 75 75 74 74 74 74 74 75 74 75 75 75 76 75 75 75 75 75 74 73 74 73 73 73 72 72 72 73 73 76 74 69 65 65 54 54 53 55 58 62 70 73 72 72 71 72 73 72 65 59 53 53 54 55 56 65 59 56 58 60 64 70 73 72 73 73 72 72 72 73 73 73 70 65 67 66 71 70 69 69 69 68 68 68
75 75 75 74 75 74 74 74 75 74 75 75 76 75 76 76 75 76 76 75 73 73 73 73 74 73 73 72 73 73 73 73 73 70 63 57 54 53 54 56 57 58 71 72 73 72 67 59 60 62 60 54 53 54 55 55 54 58 57 57 63 69 71 72 73 73 72 72 72 73 73 71 69 68 69 71 71 70 71 70 68 68 67 68 68
76 75 75 74 74 73 74 74 75 75 75 75 76 76 76 75 75 75 74 73 73 73 73 72 73 73 73 73 73 73 73 73 74 74 67 61 58 54 54 55 56 57 62 69 67 64 61 62 59 59 58 61 71 73 73 74 57 58 59 61 70 71 73 73 73 73 72 72 71 71 69 66 66 68 71 70 70 69 68 68 67 65 65 65 65
75 75 75 74 75 74 74 73 73 75 75 74 75 75 75 75 75 75 74 73 73 73 73 73 72 72 72 73 73 73 74 73 74 75 74 72 69 66 61 60 56 57 61 67 66 69 71 69 69 63 62 63 66 66 66 62 65 66 67 69 72 73 73 72 72 72 71 71 69 66 66 67 68 68 69 69 69 69 68 66 65 63 64 65 66
75 75 75 74 74 74 74 74 74 73 74 73 72 73 74 74 74 75 74 74 73 72 73 72 72 72 72 73 73 73 73 73 73 74 74 75 73 72 69 67 66 66 66 68 70 71 71 64 66 74 73 73 72 72 72 73 73 72 72 71 71 71 67 66 67 71 71 69 67 67 66 68 67 66 66 65 65 65 67 65 65 65 64 65 65
75 75 75 74 74 75 75 75 74 73 74 75 74 78 79 74 74 75 77 76 75 74 74 74 73 74 73 73 73 73 73 73 74 67 79 68 74 73 72 70 71 70 67 63 70 71 71 71 71 71 71 71 70 71 71 71 71 71 71 71 71 68 68 67 65 66 68 67 66 67 66 66 66 66 65 64 67 65 67 67 67 67 67 65 63
75 75 75 75 75 75 75 75 74 73 73 74 77 69 51 45 54 76 78 62 58 54 61 75 76 76 74 74 76 74 74 77 58 63 63 61 62 63 65 63 62 67 63 59 67 71 71 70 71 69 70 70 70 70 70 69 69 69 69 65 68 67 66 65 65 66 67 66 66 65 66 66 65 66 66 64 65 64 65 62 66 66 65 63 62
73 73 74 74 73 75 74 74 75 75 75 75 76 74 71 66 44 42 50 54 47 40 40 41 45 52 70 77 76 67 59 51 51 54 56 57 57 56 55 56 56 53 54 68 69 71 71 70 70 70 70 70 69 69 69 69 69 69 67 65 66 65 64 64 64 64 64 64 64 64 64 65 64 64 64 63 64 63 63 64 63 64 62 61 60
75 74 75 74 75 76 75 75 76 76 75 77 77 75 74 73 70 50 42 44 43 41 40 40 39 41 47 59 71 79 60 50 50 50 51 52 53 51 48 48 47 50 54 59 71 71 70 70 70 70 70 70 70 70 70 69 69 67 67 64 63 64 64 63 65 65 64 64 64 64 64 64 64 64 64 63 62 63 63 62 61 61 61 61 60
76 76 77 76 76 75 75 76 76 76 75 76 76 76 74 73 73 70 61 44 42 42 42 42 41 40 41 41 42 43 44 42 41 43 44 45 45 45 45 46 48 48 54 67 72 71 71 71 71 71 71 70 71 71 70 68 67 66 66 64 64 64 64 67 66 65 64 65 64 64 64 64 63 62 62 62 63 62 62 62 61 61 60 60 60
76 76 76 77 77 77 76 76 75 75 75 74 74 74 73 73 73 72 69 67 65 54 45 43 42 43 40 41 42 42 42 43 43 43 44 44 44 46 49 55 46 50 62 72 72 72 71 71 71 71 71 71 68 67 68 67 67 67 67 67 66 65 66 66 65 64 63 63 63 62 63 62 61 62 62 62 62 62 61 60 61 60 60 59 59
76 77 76 75 75 75 74 74 74 75 75 74 72 71 72 72 73 72 71 71 71 69 67 62 49 41 52 46 41 41 42 43 44 44 44 46 46 47 52 66 67 68 69 72 72 72 72 71 69 67 66 65 65 65 66 66 67 65 66 65 66 66 65 64 63 64 63 63 62 63 62 61 62 62 60 60 61 62 61 61 59 59 60 60 59
75 75 75 75 73 74 74 75 76 75 74 74 75 73 72 72 72 72 71 72 68 65 62 59 57 49 44 42 41 42 42 44 44 45 46 47 49 54 68 69 67 67 68 68 67 65 65 66 65 64 65 65 66 66 66 65 64 64 64 64 64 64 64 64 63 64 64 63 61 63 62 63 62 61 60 59 61 61 61 61 59 59 59 59 58
71 72 72 73 74 74 74 75 75 75 71 72 73 74 73 73 72 72 70 69 67 64 62 61 61 61 57 57 50 45 45 46 46 46 47 48 51 65 69 68 67 66 67 65 64 64 63 64 65 65 65 65 64 64 64 64 64 64 62 64 65 64 63 63 63 64 64 63 63 63 64 63 63 63 60 58 59 59 60 60 60 59 59 58 58
70 69 70 72 75 74 75 74 72 70 73 73 74 74 72 72 71 69 68 68 66 63 63 63 62 62 62 61 61 60 57 50 50 53 55 56 63 67 67 66 65 64 64 64 64 64 64 63 64 65 64 64 63 63 64 63 64 64 63 63 64 64 61 62 62 64 64 63 62 63 63 62 63 62 60 61 59 58 58 60 59 59 57 58 60
69 65 64 65 67 73 71 71 71 72 72 72 72 71 70 70 69 68 66 65 64 63 63 63 63 62 62 63 64 63 62 63 65 64 64 64 65 66 65 64 64 63 63 63 63 63 63 63 64 64 63 63 63 63 63 63 63 63 63 63 63 63 63 63 63 64 63 62 63 63 63 63 63 63 62 60 59 58 58 59 58 57 57 57 57
68 69 66 64 68 68 68 69 69 70 69 70 70 69 69 68 67 65 65 64 64 63 63 62 62 62 63 64 63 64 63 63 62 62 62 62 63 64 63 62 62 61 62 62 62 62 62 62 63 62 62 62 62 62 62 62 62 63 63 62 63 62 62 62 62 62 62 62 62 63 63 63 63 63 63 61 60 59 59 58 58 58 58 59 58
67 68 67 65 65 67 67 67 67 67 67 67 67 67 66 65 65 64 64 63 62 62 62 62 62 63 60 57 52 58 63 63 62 62 61 61 61 60 60 61 61 62 61 62 61 61 61 61 61 61 61 61 61 61 61 61 61 61 62 61 61 60 60 61 61 61 61 62 62 62 63 63 62 62 62 61 59 59 59 58 58 57 57 58 57
66 65 67 65 66 66 65 64 64 64 65 64 63 63 63 63 62 62 62 61 60 60 59 59 58 57 52 48 49 52 60 61 60 59 59 58 58 57 57 57 57 59 59 60 59 59 59 58 58 58 57 57 58 58 59 59 59 59 59 59 60 58 58 57 58 59 60 60 61 62 62 61 61 61 61 58 60 60 60 60 59 59 58 57 57
65 64 64 65 64 64 63 63 63 62 61 61 61 61 61 60 60 60 60 59 59 58 58 58 57 57 55 50 52 52 57 57 57 57 56 55 54 53 52 51 51 52 53 53 52 52 52 52 52 53 52 53 53 52 52 54 54 55 55 56 55 55 55 55 55 54 55 57 59 60 60 60 60 60 61 61 61 61 61 61 60 60 60 59 58
63 63 62 62 62 62 62 61 59 59 59 59 59 59 59 59 58 58 58 58 58 57 57 56 55 55 55 53 52 53 54 53 53 51 51 50 49 49 48 48 48 48 49 49 49 49 49 49 48 49 49 49 50 50 49 50 50 51 51 51 50 50 51 51 52 52 52 54 55 57 58 58 58 58 58 58 60 60 60 60 60 59 59 59 58
62 61 61 61 62 62 61 60 59 58 58 57 57 57 57 57 57 56 56 56 56 56 56 56 56 55 54 53 53 51 51 50 50 49 48 47 46 46 46 46 47 47 47 47 48 48 48 48 49 48 48 48 48 48 47 47 48 48 47 47 48 47 47 48 48 49 51 53 53 54 56 57 57 57 56 56 55 57 57 58 58 58 58 59 58
60 60 59 60 59 59 59 58 57 57 56 55 55 55 54 54 55 55 54 54 54 54 54 55 54 53 51 50 49 49 49 49 48 47 47 45 45 45 45 45 45 46 46 46 47 48 48 48 47 47 48 48 48 47 47 47 46 46 46 45 45 45 45 46 46 49 50 52 52 52 52 53 56 56 55 54 54 54 55 56 57 56 57 57 57
59 59 57 57 56 56 56 57 56 55 55 54 53 53 53 52 52 53 53 52 52 52 52 52 52 52 52 51 49 49 49 48 48 47 47 46 45 45 46 46 45 46 46 46 47 47 47 47 48 48 48 48 47 46 45 44 44 43 45 43 42 43 42 42 45 49 51 51 51 51 53 53 53 55 53 53 53 53 56 55 54 54 54 54 55
57 56 56 55 55 54 54 54 53 53 53 53 52 52 51 51 51 51 50 50 50 50 50 50 50 50 50 50 49 47 47 46 46 46 45 44 44 45 45 46 45 44 44 44 44 44 44 45 45 46 46 46 44 43 43 42 42 42 41 41 39 38 37 38 46 49 49 49 50 52 53 52 52 52 52 52 52 51 52 52 53 53 53 53 53
54 54 53 53 52 52 52 52 52 51 51 51 51 50 50 50 49 49 49 49 48 48 48 49 49 49 49 49 47 46 46 46 45 44 44 44 44 45 45 45 45 43 42 42 42 42 43 43 44 44 43 43 42 41 40 39 38 38 38 37 36 36 34 36 40 44 41 47 52 52 52 51 51 51 51 50 50 49 49 50 50 49 50 51 51
51 51 50 50 50 50 50 50 49 49 49 49 49 49 49 49 48 48 48 48 48 48 48 47 47 47 46 47 47 45 45 44 44 44 44 44 44 44 44 43 43 42 41 41 40 40 40 42 42 42 41 41 40 39 37 37 36 35 35 36 35 34 33 34 37 38 42 49 53 51 50 51 51 49 48 49 49 48 48 47 46 45 45 47 49
49 49 49 48 48 48 48 47 47 47 47 47 47 47 47 47 47 46 46 46 46 46 46 45 45 46 46 45 45 44 43 43 43 42 42 42 42 42 41 41 40 41 40 40 39 38 39 39 38 40 39 40 38 38 37 36 36 35 35 35 34 34 35 36 39 36 38 40 50 50 50 50 51 51 50 49 47 48 50 50 48 46 44 42 42